TimeEST,TemperatureF,Dew PointF,Humidity,Sea Level PressureIn,VisibilityMPH,Wind Direction,Wind SpeedMPH,Gust SpeedMPH,PrecipitationIn,Events,Conditions,WindDirDegrees,DateUTC
12:15 AM,42.8,26.6,53,30.13,10.0,WNW,9.2,-,N/A,,Mostly Cloudy,290,2013-03-08 05:15:00
12:35 AM,41.0,26.6,57,30.13,10.0,WNW,8.1,-,N/A,,Scattered Clouds,290,2013-03-08 05:35:00
12:55 AM,39.2,26.6,61,30.13,10.0,WNW,8.1,-,N/A,,Clear,290,2013-03-08 05:55:00
1:15 AM,39.2,26.6,61,30.13,10.0,WNW,8.1,-,N/A,,Clear,290,2013-03-08 06:15:00
1:35 AM,39.2,26.6,61,30.14,10.0,WNW,5.8,-,N/A,,Clear,290,2013-03-08 06:35:00
1:55 AM,37.4,26.6,65,30.14,10.0,WNW,5.8,-,N/A,,Clear,290,2013-03-08 06:55:00
2:15 AM,37.4,28.4,70,30.13,10.0,West,5.8,-,N/A,,Clear,280,2013-03-08 07:15:00
2:35 AM,37.4,28.4,70,30.13,10.0,West,4.6,-,N/A,,Clear,280,2013-03-08 07:35:00
2:55 AM,35.6,28.4,75,30.12,10.0,WNW,4.6,-,N/A,,Clear,290,2013-03-08 07:55:00
3:15 AM,35.6,28.4,75,30.11,10.0,Calm,Calm,-,N/A,,Clear,0,2013-03-08 08:15:00
3:35 AM,35.6,28.4,75,30.11,10.0,Calm,Calm,-,N/A,,Clear,0,2013-03-08 08:35:00
3:55 AM,35.6,28.4,75,30.11,10.0,Calm,Calm,-,N/A,,Clear,0,2013-03-08 08:55:00
4:15 AM,37.4,28.4,70,30.12,10.0,Calm,Calm,-,N/A,,Clear,0,2013-03-08 09:15:00
4:35 AM,37.4,28.4,70,30.12,10.0,WNW,8.1,-,N/A,,Clear,300,2013-03-08 09:35:00
4:55 AM,37.4,28.4,70,30.13,10.0,WNW,8.1,-,N/A,,Clear,300,2013-03-08 09:55:00
5:15 AM,37.4,28.4,70,30.13,10.0,WNW,5.8,-,N/A,,Clear,300,2013-03-08 10:15:00
5:35 AM,35.6,28.4,75,30.13,10.0,WNW,6.9,-,N/A,,Clear,300,2013-03-08 10:35:00
5:55 AM,37.4,28.4,70,30.13,10.0,WNW,8.1,-,N/A,,Clear,300,2013-03-08 10:55:00
6:15 AM,35.6,28.4,75,30.13,10.0,WNW,6.9,-,N/A,,Clear,290,2013-03-08 11:15:00
6:35 AM,35.6,28.4,75,30.14,10.0,West,6.9,-,N/A,,Clear,280,2013-03-08 11:35:00
6:55 AM,35.6,28.4,75,30.14,10.0,WNW,5.8,-,N/A,,Clear,290,2013-03-08 11:55:00
7:15 AM,37.4,28.4,70,30.15,10.0,WNW,8.1,-,N/A,,Clear,300,2013-03-08 12:15:00
7:35 AM,39.2,28.4,65,30.15,10.0,WNW,9.2,-,N/A,,Clear,300,2013-03-08 12:35:00
7:55 AM,41.0,28.4,61,30.15,10.0,NNW,12.7,23.0,N/A,,Mostly Cloudy,330,2013-03-08 12:55:00
8:15 AM,42.8,28.4,57,30.15,10.0,NW,15.0,25.3,N/A,,Scattered Clouds,320,2013-03-08 13:15:00
8:35 AM,42.8,26.6,53,30.15,10.0,NNW,15.0,27.6,N/A,,Clear,330,2013-03-08 13:35:00
8:55 AM,42.8,26.6,53,30.15,10.0,NNW,15.0,28.8,N/A,,Clear,330,2013-03-08 13:55:00
9:15 AM,44.6,24.8,46,30.14,10.0,NW,23.0,31.1,N/A,,Clear,320,2013-03-08 14:15:00
9:35 AM,44.6,24.8,46,30.14,10.0,NW,18.4,29.9,N/A,,Scattered Clouds,310,2013-03-08 14:35:00
9:55 AM,44.6,24.8,46,30.13,10.0,NW,20.7,29.9,N/A,,Mostly Cloudy,310,2013-03-08 14:55:00
10:15 AM,44.6,24.8,46,30.13,10.0,NW,21.9,31.1,N/A,,Mostly Cloudy,320,2013-03-08 15:15:00
10:35 AM,42.8,24.8,49,30.14,10.0,NW,20.7,29.9,N/A,,Overcast,310,2013-03-08 15:35:00
10:55 AM,42.8,24.8,49,30.14,10.0,NW,21.9,28.8,N/A,,Overcast,320,2013-03-08 15:55:00
11:15 AM,44.6,24.8,46,30.14,10.0,NW,17.3,28.8,N/A,,Overcast,320,2013-03-08 16:15:00
11:35 AM,44.6,24.8,46,30.13,10.0,NW,23.0,31.1,N/A,,Overcast,310,2013-03-08 16:35:00
11:55 AM,46.4,24.8,43,30.13,10.0,NW,21.9,31.1,N/A,,Overcast,310,2013-03-08 16:55:00
12:15 PM,44.6,24.8,46,30.13,10.0,NW,23.0,31.1,N/A,,Overcast,320,2013-03-08 17:15:00
12:35 PM,44.6,26.6,49,30.13,10.0,NNW,13.8,28.8,N/A,,Overcast,330,2013-03-08 17:35:00
12:55 PM,44.6,26.6,49,30.12,10.0,NW,15.0,32.2,N/A,,Overcast,320,2013-03-08 17:55:00
1:15 PM,46.4,26.6,46,30.10,10.0,NW,17.3,29.9,N/A,,Overcast,310,2013-03-08 18:15:00
1:35 PM,48.2,26.6,43,30.08,10.0,NW,21.9,28.8,N/A,,Scattered Clouds,310,2013-03-08 18:35:00
1:55 PM,48.2,26.6,43,30.08,10.0,NW,18.4,28.8,N/A,,Scattered Clouds,320,2013-03-08 18:55:00
2:15 PM,48.2,26.6,43,30.08,10.0,WNW,19.6,28.8,N/A,,Mostly Cloudy,300,2013-03-08 19:15:00
2:35 PM,48.2,26.6,43,30.08,10.0,WNW,15.0,24.2,N/A,,Overcast,300,2013-03-08 19:35:00
2:55 PM,50.0,26.6,40,30.08,10.0,NW,19.6,26.5,N/A,,Overcast,310,2013-03-08 19:55:00
3:15 PM,50.0,26.6,40,30.09,10.0,NNW,15.0,23.0,N/A,,Mostly Cloudy,330,2013-03-08 20:15:00
3:35 PM,50.0,28.4,43,30.09,10.0,NW,17.3,24.2,N/A,,Mostly Cloudy,310,2013-03-08 20:35:00
3:55 PM,50.0,28.4,43,30.09,10.0,NNW,16.1,26.5,N/A,,Mostly Cloudy,330,2013-03-08 20:55:00
4:15 PM,48.2,28.4,46,30.09,10.0,NW,17.3,25.3,N/A,,Scattered Clouds,320,2013-03-08 21:15:00
4:35 PM,48.2,28.4,46,30.11,10.0,NW,15.0,25.3,N/A,,Scattered Clouds,320,2013-03-08 21:35:00
4:55 PM,48.2,28.4,46,30.11,10.0,NW,15.0,25.3,N/A,,Overcast,310,2013-03-08 21:55:00
5:15 PM,48.2,28.4,46,30.12,10.0,NW,17.3,21.9,N/A,,Mostly Cloudy,320,2013-03-08 22:15:00
5:35 PM,48.2,28.4,46,30.13,10.0,WNW,10.4,18.4,N/A,,Mostly Cloudy,300,2013-03-08 22:35:00
5:55 PM,48.2,28.4,46,30.14,10.0,NW,17.3,23.0,N/A,,Overcast,320,2013-03-08 22:55:00
6:15 PM,48.2,28.4,46,30.15,10.0,NW,12.7,21.9,N/A,,Overcast,320,2013-03-08 23:15:00
6:35 PM,48.2,28.4,46,30.16,10.0,NW,12.7,19.6,N/A,,Overcast,320,2013-03-08 23:35:00
6:55 PM,48.2,28.4,46,30.16,10.0,NW,11.5,19.6,N/A,,Overcast,320,2013-03-08 23:55:00
7:15 PM,46.4,28.4,50,30.16,10.0,NW,12.7,-,N/A,,Mostly Cloudy,320,2013-03-09 00:15:00
7:35 PM,46.4,28.4,50,30.17,10.0,NW,6.9,-,N/A,,Mostly Cloudy,310,2013-03-09 00:35:00
7:55 PM,46.4,28.4,50,30.17,10.0,NW,11.5,17.3,N/A,,Overcast,310,2013-03-09 00:55:00
8:15 PM,46.4,28.4,50,30.17,10.0,WNW,8.1,-,N/A,,Overcast,300,2013-03-09 01:15:00
8:35 PM,46.4,28.4,50,30.18,10.0,NW,12.7,19.6,N/A,,Overcast,310,2013-03-09 01:35:00
8:55 PM,46.4,28.4,50,30.19,10.0,NW,9.2,-,N/A,,Overcast,320,2013-03-09 01:55:00
9:15 PM,46.4,28.4,50,30.19,10.0,WNW,9.2,-,N/A,,Overcast,300,2013-03-09 02:15:00
9:35 PM,44.6,28.4,53,30.19,10.0,NW,9.2,-,N/A,,Overcast,310,2013-03-09 02:35:00
9:55 PM,44.6,30.2,57,30.20,10.0,NW,10.4,-,N/A,,Overcast,310,2013-03-09 02:55:00
10:15 PM,44.6,30.2,57,30.20,10.0,NW,8.1,-,N/A,,Overcast,320,2013-03-09 03:15:00
10:35 PM,44.6,30.2,57,30.20,10.0,NW,8.1,-,N/A,,Overcast,320,2013-03-09 03:35:00
10:55 PM,44.6,30.2,57,30.20,10.0,NW,9.2,-,N/A,,Overcast,320,2013-03-09 03:55:00
11:15 PM,44.6,30.2,57,30.19,10.0,NNW,5.8,-,N/A,,Mostly Cloudy,330,2013-03-09 04:15:00
11:35 PM,44.6,30.2,57,30.20,10.0,NNW,6.9,-,N/A,,Mostly Cloudy,330,2013-03-09 04:35:00
11:55 PM,44.6,30.2,57,30.20,10.0,NW,6.9,-,N/A,,Mostly Cloudy,320,2013-03-09 04:55:00